Weather History for KFCM - May, 2013

Change the Weather History Date:

Monday, May 20, 2013

  Actual Average Record
Temperature  
Mean Temperature 66 °F -  
Max Temperature 73 °F 66 °F 79 °F (2014)
Min Temperature 59 °F 47 °F 37 °F (2002)
Cooling Degree Days 1    
Growing Degree Days 16 (Base 50)    
Moisture  
Dew Point 59 °F    
Average Humidity 80    
Maximum Humidity 94    
Minimum Humidity 59    
Precipitation  
Precipitation 0.23 in - - ()
Sea Level Pressure  
Sea Level Pressure 29.53 in    
Wind  
Wind Speed 9 mph (SSE)    
Max Wind Speed 18 mph    
Max Gust Speed 29 mph    
Visibility 9 miles    
Events Rain , Thunderstorm    
Averages and records for this station are not official NWS values.
T = Trace of Precipitation, MM = Missing Value Source: NWS Daily Summary

Daily Weather History Graph

Daily Weather History Graph

Search for Another Location

Airport or City:

Trip Planner

Search our weather history database for the weather conditions in past years. The results will help you decide how hot, cold, wet, or windy it might be!

Date:

Astronomy

May. 20, 2013 Rise Set
Actual Time 5:39 AM CDT 8:41 PM CDT
Civil Twilight 5:05 AM CDT 9:16 PM CDT
Nautical Twilight 4:20 AM CDT 10:01 PM CDT
Astronomical Twilight 3:27 AM CDT 10:54 PM CDT
Moon 3:38 PM CDT (5/20) 2:48 AM CDT (5/20)
Length of Visible Light 16h 11m
Length of Day
15h 01m
Waxing Gibbous, 75% of the Moon is Illuminated
May 20
Waxing Gibbous
May 24
Full
May 31
Last Quarter
Jun 8
New
Jun 16
First Quarter

Hourly Weather History & Observations

Time (CDT) Temp. Dew Point Humidity Pressure Visibility Wind Dir Wind Speed Gust Speed Precip Events Conditions
12:53 AM 64.9 °F 61.0 °F 87% 29.55 in 10.0 mi Calm Calm - 0.00 in   Overcast
1:53 AM 64.9 °F 61.0 °F 87% 29.53 in 10.0 mi ESE 5.8 mph - 0.01 in Rain Light Rain
3:53 AM 63.0 °F 60.1 °F 90% 29.49 in 10.0 mi SSE 4.6 mph - 0.00 in   Mostly Cloudy
4:40 AM 62.6 °F 60.8 °F 94% 29.50 in 10.0 mi ESE 5.8 mph - N/A   Overcast
4:53 AM 63.0 °F 60.1 °F 90% 29.49 in 10.0 mi ESE 4.6 mph - N/A   Overcast
5:29 AM 62.6 °F 60.8 °F 94% 29.51 in 10.0 mi SE 5.8 mph - N/A   Mostly Cloudy
5:42 AM 62.6 °F 60.8 °F 94% 29.51 in 10.0 mi ESE 4.6 mph - N/A   Overcast
6:10 AM 62.6 °F 60.8 °F 94% 29.52 in 10.0 mi ESE 6.9 mph - N/A   Overcast
6:27 AM 62.6 °F 60.8 °F 94% 29.53 in 10.0 mi SE 9.2 mph - N/A   Overcast
6:53 AM 63.0 °F 60.1 °F 90% 29.52 in 3.0 mi SSE 11.5 mph - 0.01 in Rain Light Rain
6:56 AM 62.6 °F 60.8 °F 94% 29.53 in 1.8 mi SSE 12.7 mph - 0.01 in Rain Rain
7:03 AM 62.6 °F 60.8 °F 94% 29.53 in 2.0 mi SSE 11.5 mph - 0.01 in Rain Light Rain
7:06 AM 62.6 °F 60.8 °F 94% 29.53 in 5.0 mi SSE 10.4 mph - 0.01 in Rain Light Rain
7:53 AM 64.0 °F 60.1 °F 87% 29.53 in 10.0 mi South 13.8 mph 20.7 mph 0.01 in   Overcast
8:08 AM 64.4 °F 59.0 °F 83% 29.54 in 10.0 mi South 11.5 mph - N/A   Mostly Cloudy
8:30 AM 64.4 °F 57.2 °F 77% 29.54 in 10.0 mi South 12.7 mph 20.7 mph N/A   Mostly Cloudy
8:53 AM 66.0 °F 57.9 °F 75% 29.53 in 10.0 mi South 15.0 mph - N/A   Mostly Cloudy
9:12 AM 66.2 °F 57.2 °F 73% 29.53 in 10.0 mi SSW 15.0 mph - N/A   Scattered Clouds
9:53 AM 69.1 °F 57.9 °F 68% 29.52 in 10.0 mi South 12.7 mph - N/A   Scattered Clouds
10:48 AM 69.8 °F 57.2 °F 64% 29.52 in 10.0 mi SSE 12.7 mph - N/A   Mostly Cloudy
10:53 AM 70.0 °F 57.9 °F 65% 29.51 in 10.0 mi South 13.8 mph - N/A   Mostly Cloudy
11:15 AM 69.8 °F 57.2 °F 64% 29.53 in 10.0 mi SSE 15.0 mph 25.3 mph N/A   Mostly Cloudy
11:53 AM 70.0 °F 57.9 °F 65% 29.52 in 10.0 mi South 16.1 mph 25.3 mph N/A   Overcast
12:53 PM 68.0 °F 57.9 °F 70% 29.52 in 10.0 mi South 15.0 mph 24.2 mph 0.00 in Rain Light Rain
1:24 PM 66.2 °F 57.2 °F 73% 29.53 in 10.0 mi South 11.5 mph 21.9 mph 0.00 in   Overcast
1:53 PM 69.1 °F 60.1 °F 73% 29.52 in 10.0 mi South 11.5 mph 19.6 mph 0.01 in   Overcast
2:02 PM 69.8 °F 59.0 °F 68% 29.53 in 10.0 mi South 13.8 mph - N/A   Mostly Cloudy
2:53 PM 66.9 °F 62.1 °F 84% 29.53 in 6.0 mi South 13.8 mph - 0.04 in   Haze
3:53 PM 68.0 °F 59.0 °F 73% 29.54 in 10.0 mi SSW 18.4 mph 28.8 mph 0.00 in Rain Light Rain
4:53 PM 72.0 °F 57.0 °F 59% 29.54 in 10.0 mi South 16.1 mph - 0.00 in   Mostly Cloudy
5:53 PM 71.1 °F 55.9 °F 59% 29.55 in 10.0 mi South 12.7 mph 21.9 mph N/A   Overcast
6:53 PM 70.0 °F 57.0 °F 63% 29.55 in 10.0 mi South 11.5 mph - N/A   Overcast
7:53 PM 68.0 °F 55.9 °F 65% 29.55 in 10.0 mi SSE 10.4 mph - N/A   Mostly Cloudy
8:53 PM 68.0 °F 55.9 °F 65% 29.54 in 10.0 mi ESE 6.9 mph - N/A   Overcast
9:53 PM 66.0 °F 57.9 °F 75% 29.55 in 5.0 mi SE 9.2 mph - 0.03 in Rain Heavy Rain
10:04 PM 64.4 °F 59.0 °F 83% 29.57 in 10.0 mi SSE 11.5 mph 18.4 mph 0.00 in Rain , Thunderstorm Light Rain
10:36 PM 64.4 °F 60.8 °F 88% 29.56 in 7.0 mi SSE 10.4 mph - 0.03 in Rain Light Rain
10:43 PM 62.6 °F 59.0 °F 88% 29.56 in 5.0 mi SSE 12.7 mph - 0.04 in Rain , Thunderstorm Rain
10:53 PM 61.0 °F 55.9 °F 83% 29.53 in 5.0 mi SE 11.5 mph - 0.06 in Rain , Thunderstorm Light Rain
11:05 PM 60.8 °F 57.2 °F 88% 29.53 in 4.0 mi East 5.8 mph - 0.05 in Rain Rain
11:53 PM 59.0 °F 55.9 °F 90% 29.53 in 10.0 mi SSE 4.6 mph - 0.06 in   Mostly Cloudy